Location: Unspecified
(0.0000°N, 0.0000°E)
Time: 13:16:34
(UTC+00:00)

N. Korean satellite - Pass Details

Date: 17 May 2019
Orbit: 457 x 507 km, 97.2° (Epoch: 23 August)

Event Time Altitude Azimuth Distance (km) Brightness Sun altitude
Rises 05:00:26 0° 39° (NE) 2,485 11.3 -13.2°
Reaches altitude 10° 05:03:05 10° 62° (ENE) 1,606 10.7 -12.6°
Maximum altitude 05:05:14 16° 101° (E) 1,286 9.6 -12.1°
Drops below altitude 10° 05:07:24 10° 140° (SE) 1,601 9.5 -11.6°
Sets 05:10:01 0° 163° (SSE) 2,474 10.1 -10.9°
